This is the latest recevied weather packets stored in our database for station/object N3TTT-13. If no packets are shown the sender has not sent any weather packets the latest 10 day(s).
| Time | Temp. | Humidity | Pressure | Rain* | Wind** | Luminosity | Snow |
|---|---|---|---|---|---|---|---|
| 1777411215 | 15.56° C | 58% | 1018.4 hPa | 0 mm | - | 84 W/m² | - |
| 1777410909 | 16.11° C | 59% | 1018.4 hPa | 0 mm | - | 88 W/m² | - |
| 1777410609 | 16.11° C | 59% | 1018.3 hPa | 0 mm | - | 102 W/m² | - |
| 1777410303 | 15.56° C | 59% | 1018.3 hPa | 0 mm | - | 120 W/m² | - |
| 1777409998 | 15.56° C | 59% | 1018.4 hPa | 0 mm | - | 110 W/m² | - |
| 1777409693 | 16.11° C | 58% | 1018.4 hPa | 0 mm | - | 119 W/m² | - |
| 1777409389 | 16.11° C | 59% | 1018.5 hPa | 0 mm | - | 159 W/m² | - |
| 1777409085 | 16.11° C | 60% | 1018.4 hPa | 0 mm | - | 147 W/m² | - |
| 1777408781 | 15.56° C | 62% | 1018.8 hPa | 0 mm | - | 167 W/m² | - |
| 1777408478 | 15.56° C | 61% | 1018.7 hPa | 0 mm | - | 99 W/m² | - |
| 1777408172 | 15.56° C | 64% | 1018.8 hPa | 0 mm | - | 87 W/m² | - |
| 1777407868 | 15.56° C | 62% | 1019.1 hPa | 0 mm | - | 94 W/m² | - |
| 1777407566 | 15.56° C | 62% | 1018.9 hPa | 0 mm | - | 123 W/m² | - |
| 1777407265 | 15.56° C | 65% | 1019.1 hPa | 0 mm | - | 184 W/m² | - |
| 1777406965 | 15.56° C | 65% | 1019.1 hPa | 0 mm | - | 180 W/m² | - |
| 1777406659 | 15.56° C | 67% | 1019.2 hPa | 0 mm | - | 188 W/m² | - |
| 1777406356 | 15.56° C | 66% | 1019.2 hPa | 0 mm | - | 194 W/m² | - |
| 1777406055 | 15.56° C | 66% | 1019.3 hPa | 0 mm | - | 167 W/m² | - |
| 1777405752 | 15° C | 66% | 1019.6 hPa | 0 mm | - | 149 W/m² | - |
| 1777405448 | 15° C | 66% | 1019.3 hPa | 0 mm | - | 137 W/m² | - |
| 1777405146 | 15° C | 65% | 1019.6 hPa | 0 mm | - | 130 W/m² | - |
| 1777404844 | 15° C | 70% | 1019.6 hPa | 0 mm | - | 140 W/m² | - |
| 1777404541 | 15° C | 68% | 1019.7 hPa | 0 mm | - | 132 W/m² | - |
| 1777404236 | 15° C | 68% | 1019.9 hPa | 0 mm | - | 110 W/m² | - |
| 1777403933 | 15° C | 70% | 1020 hPa | 0 mm | - | 115 W/m² | - |
* Rain latest hour (hover to see other rain measurements)
** Current wind speed in m/s (hover to see current wind gust speed)